Probability
19 29 32 16 13 10 6 3 3 3 6 13 10 10 10 10 10 13 13 13 10 10 10 10 6 10 10 10 6 0 0 3 3 3 3 3 0 0 3 3 3 3 6
13 29 23 16 10 13 16 6 6 3 10 10 10 10 10 16 19 19 19 16 16 19 13 10 13 10 10 10 10 3 3 3 3 3 3 6 3 3 0 3 3 6 3
13 19 19 13 13 13 13 13 10 6 6 13 13 13 16 16 16 16 16 19 19 19 26 19 16 13 10 10 10 0 3 6 3 3 6 6 6 3 3 0 0 3 3
16 16 16 13 16 16 13 13 10 13 10 16 16 19 19 16 19 16 16 16 16 16 19 23 19 19 13 13 10 6 3 3 3 3 3 3 3 10 10 0 0 0 3
19 26 23 19 19 16 16 19 16 16 13 19 16 16 19 16 16 19 19 23 19 19 19 19 19 23 19 19 13 10 6 13 13 10 6 3 3 0 6 10 6 3 3
16 19 19 26 19 16 13 13 16 23 23 23 19 19 16 16 16 16 16 16 16 19 19 19 16 16 16 16 19 16 6 13 13 10 10 10 10 10 10 10 10 3 3
16 23 23 23 19 19 13 13 16 19 19 19 16 13 13 13 13 13 13 13 16 13 13 16 16 19 19 16 16 16 19 13 10 10 10 10 10 10 10 10 10 3 3
16 23 26 19 16 13 13 10 13 16 19 13 13 13 13 13 13 13 13 13 16 16 13 13 13 13 16 16 13 13 13 10 13 13 13 10 10 10 10 10 10 10 6
16 23 19 16 13 10 10 16 16 16 16 13 13 13 13 13 13 13 13 13 16 16 13 13 13 13 16 16 13 13 13 13 16 16 13 13 13 10 10 10 10 10 3
13 16 16 16 6 3 6 10 6 13 13 13 13 13 13 13 13 13 16 13 16 16 13 13 13 13 16 16 16 13 13 13 13 16 16 16 16 13 13 10 6 3 3
13 16 13 13 13 3 6 6 10 10 16 16 16 16 16 13 13 16 16 16 16 16 16 13 13 13 13 13 16 16 10 10 10 10 10 13 13 13 13 13 10 0 0
6 10 13 13 13 6 6 6 10 10 10 6 16 16 16 19 19 16 16 16 16 16 16 13 13 13 13 13 13 13 13 10 10 10 10 10 10 10 10 10 6 3 3
3 6 10 10 10 10 10 6 10 10 10 6 10 16 16 16 16 16 19 16 16 16 16 13 13 13 13 13 13 10 10 10 10 10 10 10 10 6 3 3 6 3 3
3 6 10 10 10 10 13 10 6 6 6 3 6 10 13 16 16 16 16 16 16 16 19 13 13 13 13 13 13 10 10 10 10 10 10 10 10 6 3 3 0 3 6
3 10 10 10 13 10 10 13 6 6 6 6 10 10 16 16 16 16 16 16 16 16 16 16 16 13 13 13 10 10 10 10 10 10 10 10 6 3 3 3 0 3 3
6 6 10 13 13 10 10 10 6 6 10 6 6 6 19 19 16 16 16 16 16 16 16 16 16 16 16 10 10 10 10 6 6 3 3 3 3 3 0 0 0 0 3
6 6 13 13 10 10 10 6 3 3 6 6 6 10 16 16 16 16 16 16 16 16 16 16 16 13 6 3 0 0 3 3 3 3 3 3 0 3 0 0 0 0 0
3 6 10 10 10 6 6 6 3 6 6 6 6 6 10 16 16 13 13 13 16 16 16 13 13 10 3 0 0 0 0 3 3 3 3 3 0 0 0 0 0 0 0
3 3 6 6 6 6 6 6 6 3 6 10 6 10 10 13 13 13 13 13 10 6 10 10 10 6 3 3 0 0 0 0 3 3 3 3 0 0 0 0 0 0 0
0 6 6 6 6 6 6 6 6 3 6 6 10 6 6 6 6 6 6 10 10 6 6 10 10 6 6 3 0 0 0 0 0 0 3 0 0 0 0 0 0 0 0
3 6 6 6 10 10 10 6 6 6 3 10 3 6 6 6 6 6 6 3 3 6 6 6 6 6 6 3 0 0 0 3 0 0 0 3 0 0 0 0 0 0 0
3 6 6 6 6 6 10 6 6 6 3 6 3 3 6 6 6 6 6 3 3 3 6 6 6 6 3 3 0 0 0 0 0 0 0 3 0 0 0 0 0 0 0
3 3 3 3 3 3 6 6 3 3 6 6 3 3 3 6 6 6 6 6 3 3 6 6 6 3 3 0 0 0 0 0 0 0 0 0 0 0 0 0 0 0 0
3 3 3 3 0 0 0 0 3 3 6 6 3 0 0 6 6 6 6 6 6 6 6 6 6 0 0 0 0 0 0 0 0 0 0 0 0 0 0 0 0 0 0
3 3 3 3 0 0 0 0 6 6 6 6 3 3 3 3 3 6 6 6 6 6 3 6 3 0 0 0 0 0 0 0 0 0 0 0 0 0 0 0 0 0 0
3 3 3 3 0 0 0 3 3 6 6 6 6 3 3 0 0 0 0 0 3 3 3 3 3 0 0 0 0 0 0 0 0 0 0 0 0 0 0 0 0 0 0
Height
5860 5860 5860 5861 5861 5861 5861 5861 5860 5860 5859 5858 5858 5857 5857 5856 5855 5854 5853 5852 5851 5851 5850 5850 5850 5850 5850 5851 5851 5851 5852 5852 5852 5852 5853 5853 5852 5852 5852 5852 5852 5852 5852
5856 5856 5857 5857 5858 5859 5858 5858 5858 5858 5857 5857 5856 5855 5854 5854 5853 5853 5852 5851 5850 5849 5848 5848 5848 5848 5848 5848 5849 5849 5849 5850 5850 5850 5850 5850 5851 5850 5850 5850 5849 5849 5849
5853 5853 5854 5854 5855 5856 5856 5855 5855 5855 5855 5854 5853 5853 5852 5851 5851 5850 5849 5848 5847 5847 5846 5845 5845 5845 5845 5846 5846 5846 5847 5847 5847 5847 5847 5848 5847 5847 5847 5847 5846 5846 5846
5848 5849 5850 5851 5851 5852 5852 5852 5852 5852 5851 5851 5851 5850 5850 5849 5848 5848 5847 5846 5845 5844 5844 5843 5842 5842 5842 5843 5843 5843 5844 5844 5844 5844 5844 5844 5844 5844 5844 5844 5843 5843 5843
5844 5845 5846 5847 5847 5848 5848 5848 5848 5848 5848 5848 5848 5847 5847 5846 5845 5845 5844 5843 5842 5841 5841 5840 5839 5839 5839 5840 5840 5840 5841 5841 5841 5841 5840 5840 5840 5840 5840 5840 5840 5839 5839
5839 5840 5841 5842 5843 5843 5843 5843 5844 5844 5844 5844 5844 5844 5843 5843 5842 5841 5840 5839 5839 5838 5838 5837 5836 5836 5836 5836 5837 5837 5837 5837 5837 5837 5836 5836 5836 5836 5836 5836 5836 5835 5835
5834 5835 5836 5837 5838 5839 5839 5839 5839 5839 5839 5839 5839 5839 5839 5838 5838 5837 5836 5835 5835 5834 5834 5833 5833 5833 5833 5833 5833 5833 5833 5833 5833 5833 5833 5832 5832 5831 5831 5831 5831 5831 5831
5829 5830 5830 5831 5832 5833 5834 5834 5835 5835 5835 5835 5835 5835 5834 5834 5833 5833 5832 5831 5830 5830 5829 5829 5829 5829 5828 5829 5829 5828 5829 5829 5829 5829 5828 5828 5828 5827 5827 5826 5826 5826 5826
5823 5824 5825 5826 5827 5827 5828 5829 5830 5830 5830 5830 5830 5830 5829 5829 5828 5828 5826 5826 5825 5825 5825 5824 5824 5824 5824 5824 5824 5824 5824 5824 5823 5823 5823 5823 5823 5822 5822 5821 5821 5821 5820
5816 5817 5819 5820 5821 5821 5822 5823 5824 5824 5825 5825 5824 5824 5824 5823 5823 5822 5821 5820 5820 5819 5819 5819 5819 5819 5819 5819 5819 5819 5819 5819 5818 5818 5818 5818 5817 5817 5816 5816 5816 5815 5815
5809 5811 5812 5813 5814 5815 5816 5817 5818 5818 5818 5818 5818 5818 5818 5817 5817 5816 5816 5815 5814 5813 5813 5813 5813 5813 5813 5813 5813 5813 5813 5813 5812 5812 5812 5812 5811 5811 5810 5810 5809 5809 5809
5803 5804 5806 5807 5808 5809 5809 5810 5811 5811 5811 5812 5812 5812 5811 5811 5810 5810 5809 5809 5808 5807 5807 5807 5807 5807 5807 5807 5806 5807 5806 5806 5806 5806 5806 5806 5805 5805 5804 5804 5803 5803 5802
5796 5797 5799 5800 5801 5802 5802 5803 5803 5804 5805 5805 5804 5804 5804 5804 5804 5803 5803 5802 5802 5801 5801 5801 5800 5800 5800 5799 5799 5799 5799 5799 5799 5799 5799 5799 5798 5798 5798 5797 5797 5796 5796
5789 5790 5791 5792 5793 5794 5794 5795 5796 5797 5797 5797 5797 5797 5797 5797 5797 5796 5796 5795 5795 5794 5794 5794 5793 5792 5792 5792 5792 5792 5791 5791 5791 5791 5791 5791 5791 5791 5791 5790 5790 5789 5789
5781 5783 5783 5784 5785 5786 5786 5787 5788 5789 5790 5790 5790 5790 5790 5790 5790 5789 5789 5788 5788 5787 5787 5786 5785 5784 5784 5784 5784 5784 5784 5783 5783 5783 5783 5783 5784 5783 5783 5783 5782 5782 5781
5774 5775 5776 5777 5778 5778 5779 5779 5780 5781 5782 5783 5783 5783 5783 5783 5783 5782 5781 5781 5780 5780 5779 5778 5778 5777 5776 5776 5776 5775 5775 5775 5775 5775 5775 5775 5775 5775 5775 5775 5774 5774 5774
5766 5767 5768 5770 5770 5771 5771 5771 5772 5773 5774 5775 5775 5775 5775 5775 5775 5775 5774 5773 5773 5772 5771 5770 5769 5769 5768 5768 5768 5767 5767 5767 5767 5767 5767 5767 5767 5767 5767 5767 5766 5766 5765
5759 5760 5761 5762 5763 5764 5764 5764 5765 5766 5767 5767 5767 5767 5767 5767 5767 5767 5766 5765 5765 5764 5764 5762 5762 5761 5760 5760 5760 5759 5759 5759 5759 5759 5759 5759 5759 5759 5759 5758 5758 5758 5757
5750 5751 5753 5754 5755 5756 5756 5757 5757 5758 5758 5759 5759 5759 5759 5759 5759 5758 5758 5757 5757 5756 5756 5755 5754 5753 5752 5752 5751 5751 5751 5751 5751 5751 5751 5751 5751 5751 5750 5750 5750 5750 5749
5742 5743 5744 5745 5746 5747 5748 5749 5749 5750 5751 5751 5751 5751 5751 5751 5751 5750 5750 5749 5749 5748 5748 5747 5746 5745 5744 5743 5743 5743 5743 5743 5742 5742 5742 5742 5742 5742 5741 5741 5741 5741 5741
5733 5734 5736 5737 5737 5738 5739 5740 5741 5741 5742 5742 5742 5743 5743 5742 5742 5741 5741 5740 5740 5740 5739 5739 5737 5736 5736 5735 5735 5734 5734 5733 5733 5733 5733 5733 5733 5733 5733 5733 5733 5733 5732
5725 5726 5727 5728 5729 5730 5731 5732 5733 5733 5733 5734 5734 5734 5734 5733 5732 5733 5732 5732 5732 5732 5731 5730 5729 5729 5727 5727 5726 5725 5725 5724 5724 5724 5724 5724 5724 5724 5724 5724 5724 5724 5724
5716 5717 5718 5720 5720 5721 5722 5723 5724 5725 5725 5725 5726 5725 5725 5725 5724 5724 5724 5724 5724 5724 5724 5723 5722 5721 5720 5719 5718 5717 5716 5715 5715 5716 5716 5716 5716 5716 5716 5716 5715 5715 5715
5707 5708 5710 5711 5712 5713 5713 5714 5715 5716 5716 5717 5717 5717 5717 5717 5717 5716 5716 5716 5716 5716 5715 5715 5714 5714 5713 5711 5710 5709 5708 5707 5707 5707 5707 5707 5707 5707 5707 5707 5707 5706 5706
5698 5700 5701 5702 5703 5704 5705 5706 5706 5707 5707 5708 5708 5709 5709 5709 5709 5709 5708 5708 5708 5707 5707 5707 5706 5705 5705 5704 5702 5701 5700 5700 5699 5699 5699 5699 5699 5699 5698 5698 5698 5698 5697
5689 5690 5692 5693 5694 5695 5696 5697 5698 5699 5699 5699 5700 5700 5701 5701 5701 5701 5700 5700 5700 5699 5699 5698 5698 5697 5696 5695 5694 5694 5693 5692 5692 5691 5691 5691 5691 5691 5691 5690 5690 5689 5689
Wind_Speed
15 14 14 13 12 11 10 10 10 10 9 9 9 9 9 8 8 9 9 9 9 9 9 9 9 10 10 10 9 9 8 8 9 9 9 9 8 9 9 9 9 10 11
15 14 14 14 13 12 11 11 11 11 10 11 10 9 9 9 10 10 10 10 10 10 10 10 10 10 11 11 11 10 9 9 10 10 11 11 11 10 10 10 11 11 11
16 15 14 13 14 14 13 12 12 12 12 11 11 10 11 11 11 11 11 11 11 11 11 11 11 12 12 12 12 11 11 11 11 11 12 12 11 11 11 12 12 12 13
16 15 16 16 15 15 14 14 13 13 13 13 12 12 12 12 12 12 12 12 12 12 12 12 12 12 12 13 13 13 12 12 12 12 13 12 13 12 12 13 13 13 13
18 18 17 17 17 16 16 15 15 15 15 14 14 14 13 13 13 14 14 14 13 13 13 13 12 12 13 13 13 13 13 13 13 13 14 14 14 14 14 13 14 14 14
20 19 19 18 18 17 17 17 16 16 16 16 16 16 16 15 15 16 16 16 15 15 14 14 14 14 13 13 14 14 14 14 14 14 15 15 15 15 15 15 15 15 15
20 20 20 19 18 18 17 17 17 17 17 17 17 17 17 17 17 17 18 17 17 17 16 15 15 15 15 15 15 15 15 15 15 15 16 16 16 16 15 16 16 16 17
22 21 21 20 19 19 18 18 18 18 18 18 18 19 19 19 19 19 19 19 18 18 17 17 17 16 16 16 16 17 17 16 16 17 17 16 16 16 16 16 17 17 18
23 22 22 21 21 20 20 19 19 19 18 18 19 20 20 21 20 20 20 20 19 19 18 18 18 18 19 18 18 18 18 18 18 18 18 18 18 18 18 18 18 19 19
26 25 24 23 22 21 20 20 21 21 20 20 20 20 20 20 20 21 21 20 20 20 19 19 19 20 20 19 19 19 19 19 19 19 19 19 19 19 20 20 20 20 20
26 26 26 25 24 23 22 22 23 23 23 23 22 22 23 23 22 22 22 22 21 20 19 19 20 20 21 22 22 22 21 21 21 20 21 21 21 21 21 21 22 22 21
25 26 27 27 25 25 24 25 24 24 24 24 25 24 24 24 23 23 23 22 21 21 20 20 21 21 22 22 23 23 23 23 23 23 23 23 22 23 23 23 23 22 22
26 26 26 26 26 26 26 26 26 26 25 25 25 24 24 24 24 23 22 22 22 21 21 22 22 23 23 23 24 24 24 24 24 24 25 24 23 23 23 23 23 23 22
27 26 26 26 26 27 27 27 27 27 26 25 24 25 25 24 24 24 24 24 23 23 23 23 24 24 25 25 25 25 26 25 25 25 25 25 25 24 24 24 24 24 24
27 27 27 27 27 27 27 28 27 27 26 24 25 25 25 25 24 24 25 25 25 25 25 24 25 25 25 25 26 26 26 27 27 26 26 26 26 26 25 25 24 24 25
26 26 27 27 27 27 28 28 27 26 26 25 25 25 25 25 25 25 25 25 25 25 25 25 25 25 26 26 26 26 27 26 26 26 27 27 27 27 26 26 26 25 25
26 25 25 26 27 28 28 27 26 26 25 25 26 26 26 26 26 26 26 26 25 26 27 27 26 26 26 27 26 26 27 26 25 26 26 27 27 27 27 27 27 27 26
26 26 26 26 26 26 26 26 26 25 25 25 26 26 27 27 27 27 27 26 26 26 27 27 27 27 27 27 27 26 26 26 26 26 27 27 27 28 28 28 28 28 27
28 28 28 28 27 27 26 26 26 25 26 26 27 27 27 27 27 27 27 27 26 26 26 27 27 27 27 27 27 28 27 27 27 27 27 27 28 28 29 28 28 28 27
29 30 29 28 28 28 27 26 26 26 27 27 28 28 28 27 28 28 28 28 27 27 27 27 27 28 27 28 28 28 28 28 28 27 28 28 28 29 29 29 28 28 27
28 28 27 27 28 28 27 28 28 27 28 28 28 28 28 28 29 29 28 27 28 27 27 27 27 27 28 28 28 29 29 28 27 27 28 29 29 29 29 29 28 28 28
29 29 28 28 28 27 27 28 28 28 27 28 28 28 28 27 27 28 27 27 27 27 27 26 26 26 26 27 28 28 28 28 28 27 27 28 28 28 29 28 28 28 28
28 29 28 28 28 28 28 29 29 28 28 28 28 27 27 26 26 26 26 26 26 26 26 26 26 27 26 26 27 28 28 28 28 27 27 28 28 28 28 28 28 28 28
29 28 29 29 28 28 28 29 29 29 28 28 28 27 26 25 25 26 26 26 26 26 26 26 26 26 27 26 26 27 27 28 27 26 27 27 28 28 28 28 28 28 28
30 30 30 30 29 29 29 29 29 29 29 29 28 27 26 26 26 26 26 26 26 26 27 27 26 26 26 26 26 27 26 26 26 26 27 27 27 27 27 27 28 28 28
30 30 31 30 29 29 29 29 30 29 28 28 27 27 27 26 26 27 27 26 26 26 26 26 27 27 27 27 26 26 26 26 26 26 27 27 27 27 27 27 28 28 28
Wind_Direction
275 280 277 279 284 292 296 296 301 310 309 308 310 306 309 306 302 302 303 301 295 294 290 285 276 270 264 261 263 265 270 277 275 272 272 275 277 277 274 274 272 270 268
270 276 277 275 279 282 288 291 297 302 304 302 303 303 304 301 300 301 301 300 298 295 293 287 279 272 264 260 261 263 269 275 278 274 272 275 277 278 279 278 275 274 273
267 269 270 272 279 282 282 285 290 293 294 293 292 293 293 297 295 296 297 299 297 293 291 286 276 270 261 258 260 262 267 273 277 276 274 273 275 277 278 278 279 277 274
261 264 268 269 273 278 277 278 282 286 287 285 285 287 290 291 293 292 291 293 294 292 289 286 278 269 261 258 260 264 267 272 277 275 274 271 271 273 275 276 276 277 275
258 264 266 265 267 274 275 273 275 281 281 280 282 282 283 287 289 290 289 289 289 287 285 280 276 270 262 259 261 265 268 271 274 275 275 275 272 272 271 272 275 277 277
256 261 264 264 267 271 274 273 272 276 276 278 280 279 279 281 286 288 288 287 286 284 282 280 275 271 266 264 264 268 272 272 273 274 275 275 274 273 272 272 273 276 277
256 259 262 263 267 270 271 270 271 275 277 277 279 282 278 279 283 287 287 285 282 280 279 277 276 273 269 268 267 271 276 276 275 276 277 276 275 275 275 275 274 275 276
255 259 260 262 265 268 269 270 273 276 277 277 278 282 281 281 284 286 285 283 281 279 276 274 274 273 270 270 270 271 272 273 272 273 276 277 274 274 276 276 275 273 274
254 256 260 261 263 264 266 268 271 274 275 276 277 279 279 279 282 284 284 281 279 276 274 272 272 271 269 269 269 270 272 272 272 273 275 276 275 273 273 274 275 274 273
256 260 261 260 261 262 264 266 269 272 273 275 276 276 279 282 282 283 283 281 277 273 271 270 270 271 270 269 270 271 273 272 271 271 273 275 276 275 274 273 274 275 276
260 262 260 260 259 261 264 267 269 273 272 274 275 276 277 282 283 282 281 280 277 274 270 269 269 271 271 269 269 270 272 273 272 272 272 273 275 276 277 276 276 275 275
260 260 259 258 259 262 264 266 267 271 272 273 274 275 277 280 281 280 280 279 277 276 274 271 270 272 273 271 270 270 271 272 272 272 272 272 273 275 277 278 278 277 276
259 260 259 258 260 262 262 264 266 269 271 273 274 275 277 279 279 279 280 281 279 278 276 274 272 272 274 274 273 272 271 271 271 272 271 271 272 274 276 277 276 276 277
257 257 259 259 261 263 263 265 266 268 269 272 275 275 275 277 279 280 280 280 280 278 277 277 276 275 274 274 274 274 272 271 270 271 271 271 272 273 274 275 275 276 276
256 257 259 260 260 261 263 265 266 267 268 270 273 273 274 276 278 280 279 278 278 278 278 277 278 276 274 274 272 272 273 270 269 269 270 271 272 272 273 275 276 277 277
255 256 255 257 259 260 261 263 263 265 267 269 272 273 274 275 277 278 278 278 277 277 276 276 277 277 275 274 270 269 271 270 268 268 269 270 270 271 272 274 275 277 278
255 255 256 258 260 260 260 260 262 264 267 270 272 274 274 275 275 277 277 277 276 276 276 275 275 276 276 274 271 270 271 270 269 268 268 269 269 270 273 274 274 275 277
258 257 257 258 260 262 261 262 264 265 268 270 272 273 272 272 273 275 276 277 277 277 276 275 275 275 276 274 272 272 271 271 271 270 269 269 269 270 272 273 274 274 277
258 258 258 258 260 262 263 263 266 267 267 269 271 272 272 272 272 273 275 277 278 277 276 275 275 275 275 274 272 272 272 272 272 272 271 269 270 271 272 272 273 273 275
256 258 259 260 261 261 260 262 266 267 268 270 271 271 272 272 273 274 275 275 275 276 276 276 277 276 275 274 272 272 272 272 271 272 271 271 271 272 272 271 272 273 274
258 258 258 259 260 259 258 261 265 267 268 270 271 272 273 273 273 273 274 274 274 275 276 277 278 277 275 274 273 272 273 272 271 272 271 271 270 272 272 272 272 273 274
260 259 259 260 262 262 261 262 264 266 267 269 270 271 273 274 273 272 273 273 273 274 276 278 278 279 277 275 275 274 271 270 270 271 271 271 270 271 271 272 272 273 274
260 259 259 259 260 260 261 262 263 265 267 267 268 269 271 272 272 272 272 272 272 273 275 276 277 277 279 277 277 276 272 270 270 270 270 271 271 270 271 272 273 273 274
259 259 257 258 259 260 260 260 262 263 265 267 268 268 269 271 273 272 271 271 272 273 274 275 278 278 278 277 277 277 274 273 271 270 270 271 272 272 272 274 275 274 274
259 258 257 258 259 260 260 261 263 264 265 265 265 265 266 269 271 272 272 271 272 274 274 276 277 277 276 276 276 276 274 274 272 270 271 271 271 272 273 274 276 276 276
259 258 258 258 258 259 259 261 262 262 264 266 266 265 266 268 270 271 272 271 272 272 274 276 277 277 277 278 277 275 274 273 274 274 273 272 270 271 273 274 276 277 277